User: anonymous   Login
Location: Unspecified
(0.0000°N, 0.0000°E)
Time: 06:47:55
(UTC+00:00)
Language:

STARLINK-2001 - Orbit

View from above orbital plane
View from above orbital plane
View from above satellite
View from above satellite

Ground track
Ground track

The orbit is defined by the following mean orbital elements,

1 47596U          26145.05735240 +.00000000 +00000-0 +61117-3 0 00007
2 47596  53.0423  10.4366 0004641  99.4837 260.6702 15.64926923    05
Epoch (UTC): 25 May 2026 01:22:35
Eccentricity: 0.0004641
inclination: 53.0423°
perigee height: 370 km
apogee height: 377 km
right ascension of ascending node: 10.4366°
argument of perigee: 99.4837°
revolutions per day: 15.64926923
mean anomaly at epoch: 260.6702°

The dashed part of the orbit path shows where the satellite is in the earth's shadow,  

DLR